Location: Bord�res
(43.2000°N, 0.2167°W)
Time: 14:08:50
(UTC+00:00)

BREEZE-M DEB (TANK) - Pass Details

Date: 03 March 2021
Orbit: 308 x 15403 km, 49.5° (Epoch: 14 April)

Event Time Altitude Azimuth Distance (km) Brightness Sun altitude
Rises 19:46:57 0° 294° (WNW) 2,118 6.7 -21.5°
Reaches altitude 10° 19:48:25 10° 306° (NW) 1,452 5.4 -21.8°
Maximum altitude 19:51:03 36° 18° (NNE) 950 3.4 -22.3°
Enters shadow 19:51:26 35° 32° (NNE) 1,024 3.5 -22.3°
